Regional Weather Roundup
Issued by NWS Albany, NY

Home | Current Version | Previous Version | Text Only | Print | Product List | Glossary On
Versions: 1 2 3 4 5 6 7 8 9 10 11 12 13 14 15 16 17 18 19 20 21 22 23 24 25 26 27 28 29 30 31 32 33 34 35 36 37 38 39 40 41 42 43 44 45 46 47 48 49 50
000
ASUS41 KALY 230310
RWRALY

NEW YORK STATE HOURLY WEATHER ROUNDUP
NATIONAL WEATHER SERVICE ALBANY NY
1100 PM EDT FRI MAY 22 2015

NOTE: "FAIR" INDICATES FEW OR NO CLOUDS BELOW 12,000 FEET WITH NO
SIGNIFICANT WEATHER AND/OR NO OBSTRUCTIONS TO VISIBILITY.

NYZ032-033-038>043-046>054-057>066-NYZ062>081-230400-
EAST


CITY           SKY/WX    TMP DP  RH WIND       PRES   REMARKS
ALBANY         FAIR      51  23  33 W13       30.12R
GLENS FALLS    CLEAR     44  32  62 NW7       30.15R
POUGHKEEPSIE   CLEAR     55  32  41 NW3       30.13R
NEWBURGH       CLEAR     54  36  50 NW9       30.14R
MONTGOMERY     CLEAR     54  34  46 NW5       30.14R
WHITE PLAINS   PTCLDY    57  32  38 NW12      30.11R
ISLIP          MOCLDY    61  33  35 N14       30.08R
NEW YORK CITY  PTCLDY    63  33  32 NW21      30.11R
CENTRAL PARK   PTCLDY    63  32  31 VRB3      30.15R
$$

NYZ005>009-017-018-044>046-055-056-230400-
CENTRAL


CITY           SKY/WX    TMP DP  RH WIND       PRES   REMARKS
FULTON         CLOUDY    43  34  70 N6        30.24R
SYRACUSE       PTCLDY    46  29  51 W12       30.23R
ROME           MOCLDY    41  34  76 NW5       30.22R
ELMIRA         CLEAR     46  28  49 N6        30.26R
BINGHAMTON     CLEAR     43  23  45 NW15G22   30.21R
MONTICELLO     CLEAR     46  32  57 NW12      30.17R
$$

NYZ026>034-041>043-230400-
NORTH


CITY           SKY/WX    TMP DP  RH WIND       PRES   REMARKS
WATERTOWN      CLOUDY    43  25  49 N6        30.25R
FORT DRUM      NOT AVBL
MASSENA        CLEAR     36  21  54 W5        30.22R WCI  32
SARANAC LAKE   CLOUDY    36  16  44 VRB3      30.14R
PLATTSBURGH    CLOUDY    43  19  38 NW6       30.17R
$$

NYZ001>004-010>016-019>021-230400-
WEST


CITY           SKY/WX    TMP DP  RH WIND       PRES   REMARKS
NIAGARA FALLS  CLEAR     42  28  57 N5        30.31R
BUFFALO        CLEAR     43  28  55 N9        30.30R
DUNKIRK        CLEAR     39  32  76 S3        30.30R
JAMESTOWN      FAIR      43  18  36 NW3       30.28S
WELLSVILLE     CLEAR     42  19  39 NW12      30.27R
ROCHESTER      CLEAR     43  27  53 NW7       30.30R
PENN YAN       FAIR      44  26  49 W7        30.27R
$$

             KEY
       WCI = WIND CHILL INDEX
       VSB = VISIBILITY
       HX  = HEAT INDEX
$$


USA.gov is the U.S. government's official web portal to all federal, state and local government web resources and services.